CW8353 Weather Reports


Display with metric or nautical units.
time (UTC)temp
F
wind
direction
speed
MPH
gust
MPH
rain 1hr
in
rain 24hr
in
rain mn
in
humidity
%
barometer
mb
20200331154251 46 312 0.0 2.0 0.00 0.15 0.03 90 1016.2
20200331153247 46 312 0.0 3.0 0.00 0.15 0.03 90 1016.3
20200331152249 46 312 1.0 3.0 0.00 0.15 0.03 90 1016.2
20200331151248 46 312 0.0 1.0 0.00 0.15 0.03 91 1016.0
20200331150255 46 312 0.0 0.0 0.00 0.15 0.03 92 1016.2
20200331145257 46 312 0.0 1.0 0.00 0.17 0.03 92 1016.2
20200331144256 45 312 0.0 2.0 0.00 0.17 0.03 92 1016.1
20200331143258 45 312 0.0 3.0 0.00 0.17 0.03 92 1016.1
20200331142259 44 312 0.0 0.0 0.00 0.17 0.03 92 1016.2
20200331141237 45 312 0.0 0.0 0.01 0.17 0.03 92 1016.3
20200331140258 45 312 0.0 0.0 0.01 0.17 0.03 91 1016.2
20200331135256 45 312 0.0 4.0 0.01 0.19 0.03 91 1016.1
20200331134239 45 312 0.0 0.0 0.01 0.19 0.03 90 1016.1
20200331133255 45 312 0.0 2.0 0.01 0.19 0.03 90 1016.0
20200331132258 45 312 0.0 0.0 0.01 0.19 0.03 90 1016.1
20200331131258 45 312 2.0 4.0 0.00 0.18 0.02 89 1016.1
20200331130255 45 214 0.0 2.0 0.00 0.18 0.02 89 1016.0
20200331125241 45 214 0.0 0.0 0.01 0.19 0.02 88 1016.1
20200331124239 45 213 0.0 0.0 0.01 0.19 0.02 87 1016.1
20200331123257 45 214 0.0 6.0 0.01 0.19 0.02 86 1016.1
20200331122257 46 157 0.0 3.0 0.01 0.19 0.02 85 1016.4
20200331121259 46 150 3.0 7.0 0.01 0.19 0.02 84 1016.4
20200331120251 46 176 1.0 5.0 0.02 0.19 0.02 84 1016.2
20200331115251 46 148 2.0 4.0 0.01 0.19 0.01 87 1016.4
20200331114251 46 165 2.0 4.0 0.01 0.19 0.01 85 1016.7
20200331113251 45 198 0.0 4.0 0.01 0.19 0.01 85 1016.6
20200331112250 46 194 0.0 3.0 0.01 0.19 0.01 86 1016.9
20200331111255 46 185 1.0 3.0 0.01 0.19 0.01 85 1017.0
20200331110253 46 205 1.0 4.0 0.00 0.18 0.00 85 1017.1
20200331105250 46 148 0.0 2.0 0.00 0.18 0.00 86 1017.4
20200331104250 45 148 1.0 3.0 0.00 0.18 0.00 86 1017.6
20200331103250 46 148 0.0 1.0 0.00 0.18 0.00 86 1017.8
20200331102249 46 148 0.0 5.0 0.00 0.18 0.00 84 1017.7
20200331101247 46 148 0.0 4.0 0.00 0.18 0.00 83 1017.6
20200331100250 46 148 0.0 6.0 0.00 0.18 0.00 82 1017.6
20200331095246 46 148 0.0 7.0 0.00 0.18 0.00 81 1017.7
20200331094244 46 133 1.0 8.0 0.00 0.18 0.00 81 1017.9
20200331093247 46 24 0.0 3.0 0.00 0.18 0.00 81 1017.9
20200331092244 46 50 2.0 5.0 0.00 0.18 0.00 81 1017.9
20200331091245 46 178 0.0 7.0 0.00 0.18 0.00 82 1017.9
20200331090246 46 157 1.0 3.0 0.00 0.18 0.00 82 1017.9
20200331085246 46 107 2.0 9.0 0.00 0.18 0.00 82 1018.0
20200331084241 46 316 2.0 6.0 0.00 0.18 0.00 81 1017.9
20200331083301 46 334 1.0 7.0 0.00 0.18 0.00 81 1018.0
20200331082237 46 74 1.0 4.0 0.00 0.18 0.00 82 1017.9
20200331081239 46 140 2.0 11.0 0.00 0.18 0.00 82 1017.8
20200331080257 46 188 3.0 10.0 0.00 0.18 0.00 82 1017.9
20200331075258 46 199 6.0 12.0 0.00 0.18 0.00 83 1018.0
20200331074253 46 207 3.0 13.0 0.00 0.18 0.00 82 1017.9
20200331073251 47 243 2.0 7.0 0.00 0.18 0.00 82 1018.0
20200331072252 47 135 3.0 9.0 0.00 0.18 0.00 80 1018.0
20200331071250 47 134 0.0 5.0 0.00 0.18 0.00 81 1017.9
20200331070244 47 127 2.0 6.0 0.00 0.18 0.00 81 1017.8
20200331065247 47 233 4.0 9.0 0.00 0.18 0.18 82 1017.6
20200331064249 47 163 4.0 9.0 0.00 0.18 0.18 82 1017.8
20200331063243 47 147 3.0 9.0 0.00 0.18 0.18 81 1017.8
20200331062243 47 148 3.0 9.0 0.00 0.18 0.18 81 1017.7
20200331061245 47 146 4.0 15.0 0.00 0.18 0.18 81 1017.8
20200331060241 47 156 3.0 6.0 0.00 0.18 0.18 81 1017.7
20200331055236 47 160 2.0 7.0 0.00 0.18 0.18 82 1017.6
20200331054244 47 169 3.0 11.0 0.00 0.18 0.18 82 1017.5
20200331053240 47 163 4.0 8.0 0.00 0.18 0.18 82 1017.6
20200331052256 47 163 3.0 12.0 0.00 0.18 0.18 81 1017.9
20200331051248 47 169 3.0 12.0 0.00 0.18 0.18 81 1018.0
20200331050244 47 184 3.0 7.0 0.00 0.18 0.18 81 1017.6
20200331045245 47 173 3.0 12.0 0.00 0.18 0.18 80 1017.5
20200331044239 47 165 2.0 10.0 0.01 0.18 0.18 80 1017.7
20200331043238 47 232 4.0 8.0 0.01 0.18 0.18 80 1017.6
20200331042243 47 170 6.0 11.0 0.01 0.18 0.18 80 1017.5
20200331041243 47 151 2.0 6.0 0.01 0.18 0.18 82 1017.5
20200331040244 47 153 1.0 11.0 0.01 0.18 0.18 81 1017.5
20200331035244 47 157 3.0 8.0 0.01 0.18 0.18 83 1017.5
20200331034259 47 195 2.0 10.0 0.00 0.17 0.17 82 1017.6
20200331033258 47 167 5.0 12.0 0.00 0.17 0.17 82 1017.5
20200331032240 47 141 5.0 13.0 0.01 0.17 0.17 82 1017.3
20200331031240 47 154 5.0 11.0 0.01 0.17 0.17 81 1017.2
20200331030240 47 143 4.0 11.0 0.01 0.17 0.17 81 1017.2
20200331025244 47 212 4.0 11.0 0.01 0.17 0.17 81 1017.3
20200331024248 47 156 3.0 7.0 0.01 0.17 0.17 81 1017.3
20200331023250 47 173 2.0 7.0 0.01 0.17 0.17 81 1017.3
20200331022253 47 182 2.0 9.0 0.00 0.16 0.16 81 1017.4
20200331021250 48 219 2.0 9.0 0.00 0.16 0.16 81 1017.2
20200331020253 48 143 3.0 8.0 0.00 0.16 0.16 80 1017.3
20200331015256 48 173 2.0 7.0 0.00 0.16 0.16 80 1017.3
20200331014253 48 146 5.0 14.0 0.00 0.16 0.16 79 1017.3
20200331013252 49 146 2.0 8.0 0.00 0.16 0.16 79 1017.4
20200331012239 49 146 1.0 8.0 0.00 0.16 0.16 78 1017.5
20200331011258 49 155 1.0 8.0 0.00 0.16 0.16 76 1017.7
20200331010254 49 211 0.0 7.0 0.00 0.16 0.16 76 1017.7
20200331005252 49 173 1.0 6.0 0.00 0.16 0.16 76 1017.6
20200331004254 49 159 2.0 7.0 0.00 0.16 0.16 75 1017.6
20200331003255 49 150 0.0 7.0 0.00 0.16 0.16 76 1017.7
20200331002255 49 150 1.0 9.0 0.00 0.16 0.16 75 1017.7
20200331001252 49 196 4.0 11.0 0.00 0.16 0.16 75 1017.6
20200331000252 49 165 4.0 12.0 0.00 0.16 0.16 75 1017.5
20200330235235 49 221 4.0 17.0 0.00 0.21 0.16 77 1017.4
20200330234256 49 266 5.0 17.0 0.00 0.21 0.16 76 1017.2
20200330233253 49 182 6.0 23.0 0.01 0.21 0.16 78 1017.5
20200330232254 49 194 4.0 16.0 0.01 0.21 0.16 82 1017.7
20200330231239 49 166 7.0 23.0 0.01 0.21 0.16 80 1017.8
20200330230239 49 158 11.0 19.0 0.01 0.21 0.16 79 1017.8
20200330225258 49 146 12.0 19.0 0.01 0.21 0.16 80 1017.9
20200330224250 49 118 9.0 19.0 0.02 0.21 0.16 81 1018.0
20200330223252 48 184 9.0 19.0 0.01 0.20 0.15 81 1018.0
20200330222242 49 133 8.0 14.0 0.01 0.20 0.15 81 1018.0
20200330221248 49 165 9.0 21.0 0.01 0.20 0.15 82 1018.1
20200330220248 49 240 5.0 13.0 0.01 0.20 0.15 83 1018.3
20200330215248 48 155 4.0 13.0 0.01 0.20 0.15 83 1018.3
20200330214248 48 164 6.0 13.0 0.00 0.19 0.14 84 1018.3
20200330213252 48 121 4.0 19.0 0.01 0.19 0.14 83 1018.3
20200330212249 48 182 7.0 19.0 0.01 0.19 0.14 84 1018.4
20200330211243 48 157 7.0 14.0 0.02 0.19 0.14 84 1018.5
20200330210247 48 138 5.0 13.0 0.02 0.19 0.14 86 1018.7
20200330205250 47 136 5.0 13.0 0.02 0.19 0.14 85 1018.6
20200330204241 47 141 3.0 10.0 0.03 0.19 0.14 85 1018.7
20200330203240 47 155 2.0 7.0 0.03 0.18 0.13 86 1018.9
20200330202240 47 150 1.0 8.0 0.03 0.18 0.13 87 1018.8
20200330201242 47 132 2.0 7.0 0.02 0.17 0.12 86 1018.8
20200330200254 47 155 6.0 13.0 0.03 0.17 0.12 86 1018.8
20200330195253 46 156 5.0 9.0 0.03 0.17 0.12 86 1019.0
20200330194252 46 150 3.0 11.0 0.02 0.16 0.11 86 1019.0
20200330193252 46 144 1.0 13.0 0.01 0.15 0.10 86 1019.0
20200330192250 47 164 4.0 11.0 0.01 0.15 0.10 84 1019.0
20200330191248 47 173 2.0 6.0 0.02 0.15 0.10 84 1019.1
20200330190249 47 144 4.0 17.0 0.01 0.14 0.09 85 1019.0
20200330185252 47 173 5.0 15.0 0.01 0.14 0.09 86 1019.0
20200330184254 47 199 8.0 15.0 0.01 0.14 0.09 86 1019.0
20200330183252 46 151 6.0 12.0 0.01 0.14 0.09 88 1019.0
20200330182249 46 150 5.0 12.0 0.01 0.14 0.09 86 1019.1
20200330181244 46 141 8.0 20.0 0.00 0.13 0.08 85 1019.0
20200330180253 47 156 10.0 18.0 0.00 0.13 0.08 86 1019.1
20200330175256 47 148 11.0 20.0 0.00 0.14 0.08 87 1019.1
20200330174237 46 146 7.0 13.0 0.00 0.14 0.08 88 1019.2
20200330173256 45 154 6.0 11.0 0.00 0.14 0.08 87 1019.2
20200330172256 45 141 6.0 8.0 0.01 0.14 0.08 89 1019.0
20200330171258 44 137 6.0 9.0 0.01 0.14 0.08 89 1018.9
20200330170254 44 148 6.0 10.0 0.01 0.14 0.08 88 1018.9
20200330165255 44 140 6.0 8.0 0.01 0.16 0.08 87 1019.0
20200330164237 44 149 6.0 9.0 0.01 0.16 0.08 87 1019.0
20200330163241 44 149 7.0 9.0 0.02 0.16 0.08 88 1018.9
20200330162256 43 140 5.0 8.0 0.01 0.15 0.07 88 1018.8
20200330161249 43 138 4.0 7.0 0.01 0.15 0.07 88 1018.7
20200330160247 43 128 3.0 6.0 0.01 0.15 0.07 88 1018.8
20200330155255 43 127 2.0 4.0 0.02 0.17 0.07 89 1018.8